Theta_e
312 312 312 312 312 312 312 312 313 313 314 315 316 317 317 317 317 317 316 316 314 315 318 318 317 316 316 315 315 315 314 313 313 314 314 314 315 315 317 319 320 319 319 318 317 317 316 314 314 314 315 317 317 318 317 316 316 318 328 330 321 320 323 320 319 315 316 320 312 308 310 311 313 310 309 309 309 309 308 308 310 310 310 310 310 310 309 309
311 311 312 311 311 311 311 311 312 312 312 313 313 315 315 316 316 317 317 316 315 314 316 318 318 316 316 316 315 314 314 314 314 314 314 314 315 316 317 319 319 319 318 319 319 319 317 316 316 314 316 317 317 317 317 316 315 318 327 324 319 325 321 314 315 312 311 315 310 308 309 310 312 310 309 310 309 307 307 308 308 309 310 310 310 309 309 309
311 311 311 311 311 311 311 311 311 311 311 311 312 312 314 314 315 316 316 316 315 314 315 317 318 317 316 316 315 314 314 314 314 314 314 314 316 316 317 319 319 319 318 319 320 320 319 318 317 314 315 316 316 317 315 316 315 314 319 323 324 322 314 310 312 312 312 312 309 309 309 308 310 310 309 309 308 306 307 309 307 308 311 311 310 309 308 308
311 311 311 311 311 310 311 311 311 311 310 310 311 311 312 313 314 315 315 316 316 315 315 316 317 318 317 316 315 315 315 316 316 314 314 314 316 317 317 319 319 318 318 318 319 320 320 319 316 314 315 315 315 316 314 314 315 313 317 324 320 312 313 313 311 312 312 311 310 309 309 309 309 309 308 308 309 308 307 310 311 311 313 312 310 309 308 308
311 311 311 311 310 311 310 311 311 311 310 310 310 310 310 311 312 313 314 315 316 315 315 315 316 317 318 316 316 315 315 319 319 315 314 315 316 317 317 318 318 318 318 318 319 319 320 319 316 315 315 315 314 315 313 312 313 313 313 315 311 308 314 314 311 312 311 311 310 308 309 311 309 308 308 308 311 312 310 312 313 312 313 312 311 310 309 308
311 311 311 311 310 311 310 310 310 310 311 310 310 310 310 310 311 312 313 314 315 315 315 315 314 316 318 317 316 316 316 319 319 315 314 315 316 317 317 317 318 318 317 318 318 318 320 319 317 315 314 315 314 314 313 311 311 314 313 309 310 310 312 313 311 312 311 311 310 309 310 310 308 309 308 307 310 312 312 312 312 311 312 311 311 310 309 308
311 311 311 311 311 311 310 310 310 310 311 310 310 310 310 310 310 311 312 312 314 314 314 315 314 315 317 318 316 316 315 317 318 316 315 314 315 316 317 317 317 318 317 317 318 318 319 319 317 315 314 314 313 313 312 310 310 315 315 310 311 310 311 312 312 312 312 311 311 310 310 308 309 310 308 307 310 312 311 311 311 311 311 310 310 309 309 309
311 311 311 311 311 311 311 310 310 310 310 310 310 310 310 310 310 310 310 311 312 313 313 314 315 314 316 318 317 316 316 317 317 317 316 314 315 316 316 316 316 317 317 317 317 318 319 318 317 315 314 313 313 313 311 310 310 314 315 310 310 311 312 313 311 312 311 311 311 309 309 308 309 308 306 308 311 311 310 311 310 310 310 310 310 309 309 308
311 311 311 311 311 311 311 311 310 310 310 310 310 310 310 310 310 310 310 311 311 312 312 313 315 314 315 317 317 317 317 318 318 317 316 314 314 315 316 316 316 317 317 317 317 317 318 318 316 315 314 312 312 312 310 312 313 312 312 311 310 311 311 312 312 312 311 311 310 309 309 308 308 307 307 310 311 310 310 310 310 310 309 310 310 309 309 308
311 311 311 311 311 311 311 311 311 311 310 310 310 310 310 310 310 310 310 310 310 311 311 312 314 314 315 316 317 318 317 317 318 317 316 314 314 314 315 315 315 316 316 317 316 317 318 318 316 315 315 313 312 311 309 311 312 310 309 309 310 310 310 310 310 310 310 309 308 309 310 308 306 307 310 311 311 310 310 309 309 309 308 309 309 309 308 307
312 312 312 311 311 311 311 311 311 311 311 310 310 310 310 310 310 310 310 310 310 310 311 313 315 314 314 315 317 317 315 316 317 317 317 315 313 313 315 315 315 315 315 316 316 316 316 318 317 315 315 314 312 310 309 310 310 309 309 310 308 307 308 308 308 308 308 309 308 308 308 306 305 307 310 310 310 310 309 309 309 308 308 308 308 308 308 307
312 311 311 311 312 312 311 312 312 312 312 311 311 310 310 310 310 310 310 310 310 311 311 313 314 314 314 315 316 316 315 316 316 317 317 316 313 313 314 315 315 315 315 315 316 316 316 317 317 315 315 314 312 311 310 310 309 309 309 312 313 312 313 308 307 307 307 309 308 306 309 309 307 308 311 309 309 309 308 309 308 308 308 307 308 307 307 307
311 311 311 312 312 312 312 312 312 313 313 312 312 311 311 311 310 310 311 310 310 311 312 313 314 314 314 315 315 315 315 316 316 317 317 316 314 313 313 314 315 315 315 315 315 315 315 317 316 316 314 312 311 311 310 308 307 309 308 311 316 319 319 309 305 307 306 309 307 307 314 317 313 310 310 310 308 308 307 308 308 308 308 307 307 307 307 306
311 311 311 311 312 312 312 313 313 313 313 314 313 313 312 311 311 311 311 310 310 311 312 312 313 314 314 315 315 314 315 315 316 316 317 316 314 313 313 313 315 314 315 314 315 315 314 316 316 315 312 311 310 308 312 310 310 312 308 313 319 317 322 313 305 307 309 309 307 308 315 317 315 312 311 311 308 306 306 307 307 307 307 306 306 306 306 306
312 312 312 312 312 312 312 313 313 313 313 314 313 313 312 312 312 311 311 311 311 311 311 311 312 314 314 314 314 315 315 315 316 316 316 316 314 313 313 313 314 313 314 314 314 315 313 315 315 314 312 311 311 313 319 319 318 317 311 321 323 315 323 319 305 305 310 309 306 309 315 315 313 312 310 310 307 306 305 306 306 306 306 306 306 306 306 306
312 312 312 312 312 312 312 312 313 313 313 313 313 313 312 312 312 312 311 311 311 312 311 311 313 314 315 315 314 315 315 315 316 316 315 314 313 313 313 313 313 314 314 313 314 314 313 315 314 312 310 309 314 321 325 322 325 323 314 320 327 318 319 318 307 302 305 309 307 308 313 315 313 310 309 309 307 305 303 304 306 305 306 306 306 306 305 305
312 312 312 312 312 312 312 311 312 312 312 312 312 312 311 311 311 311 312 311 311 311 311 313 314 315 316 315 315 315 316 316 315 315 315 314 313 312 313 313 313 314 313 313 314 314 313 315 312 312 311 309 314 322 321 320 327 326 316 317 324 319 314 316 314 304 301 307 310 309 309 311 312 310 308 308 307 305 302 303 305 305 306 306 305 305 304 304
313 312 312 312 312 312 311 311 311 312 312 312 311 311 311 310 311 311 311 311 311 312 313 314 314 315 315 314 315 316 316 316 315 315 314 314 313 312 313 313 313 313 313 313 313 314 314 312 312 317 317 311 314 320 318 319 323 321 320 319 319 317 313 314 315 307 303 307 309 309 309 309 310 309 308 308 306 304 303 303 304 304 306 306 304 303 304 304
312 313 313 312 312 312 311 311 311 311 311 311 310 310 310 310 310 310 311 312 312 315 317 316 315 316 316 313 314 314 314 314 314 315 314 314 313 313 313 313 314 313 312 314 315 313 312 312 313 318 320 315 315 318 318 323 325 321 321 321 319 317 314 312 311 305 302 306 308 307 308 308 308 308 308 307 306 304 303 303 302 302 304 303 302 302 303 303
308 309 310 311 312 312 312 311 310 310 310 311 310 309 310 309 311 313 312 312 312 313 315 314 314 315 315 313 313 313 313 313 314 314 314 314 314 313 314 313 313 313 313 318 320 312 310 316 319 318 319 319 319 317 316 319 319 316 316 316 315 313 311 311 310 305 301 305 309 307 306 306 306 306 306 306 305 303 301 300 300 302 302 301 301 301 302 304
307 307 307 307 308 309 311 311 311 310 309 309 309 309 308 308 312 313 311 311 312 311 312 312 312 313 313 313 312 312 312 313 313 314 314 314 314 313 313 313 313 316 314 313 314 311 310 317 319 319 317 316 317 314 311 311 310 310 312 312 311 310 310 309 307 306 303 304 309 309 307 307 305 306 306 306 306 304 303 300 300 303 303 301 301 302 303 304
307 308 308 307 307 306 307 309 310 310 309 309 308 307 308 308 311 311 310 312 312 310 311 311 311 312 312 311 311 311 312 313 312 313 313 313 314 314 313 313 315 318 313 309 313 314 314 318 319 315 308 307 309 306 308 311 309 310 312 311 312 311 311 311 308 306 305 305 309 310 307 306 307 307 307 307 307 307 307 305 304 305 304 302 302 303 303 303
308 308 308 308 307 306 305 306 308 309 309 308 307 307 308 308 309 310 311 312 313 311 310 311 311 311 311 311 311 311 311 312 312 312 313 312 313 313 312 313 317 319 315 314 318 317 319 323 314 304 302 308 310 304 307 310 309 312 312 312 315 312 312 315 311 307 306 306 307 308 306 306 307 307 307 307 305 306 307 306 307 306 305 304 304 304 304 304
307 307 307 307 307 306 305 304 305 307 308 308 307 307 308 309 310 311 312 312 313 312 310 311 311 311 312 311 311 312 311 312 312 311 312 312 312 312 311 312 316 318 314 316 319 317 321 317 303 299 305 314 314 306 307 309 311 315 313 312 314 313 313 314 312 308 309 308 304 306 310 310 310 309 309 307 303 304 304 304 306 305 305 305 304 304 305 305
306 306 306 306 306 306 305 304 305 306 307 307 307 308 309 310 311 312 312 312 313 313 311 311 312 311 312 312 312 312 311 312 312 312 312 312 312 312 311 311 313 316 316 317 317 317 318 308 301 305 308 312 315 311 311 311 314 319 317 313 312 313 312 310 310 310 314 315 307 307 314 313 313 313 313 312 310 310 307 304 305 305 305 305 305 306 306 306
306 305 305 304 305 305 305 305 306 306 307 308 308 309 310 311 313 313 313 312 314 314 312 311 313 314 313 313 313 311 314 315 311 312 312 312 312 311 312 311 310 314 316 314 315 318 315 304 304 313 311 310 313 313 313 311 313 317 315 312 310 309 309 308 309 310 317 318 308 307 316 315 312 314 317 318 318 317 312 309 308 306 306 306 306 308 308 307
309 307 305 304 304 305 305 305 307 308 309 309 310 311 311 312 313 312 310 310 313 314 314 313 313 315 314 313 312 312 318 317 311 311 311 311 311 310 314 314 310 311 309 309 315 316 311 306 306 311 312 312 312 313 314 310 314 318 311 310 311 309 310 311 309 310 313 312 308 308 311 312 312 313 316 316 315 315 313 313 310 306 306 308 309 311 311 310
311 309 306 305 304 305 305 305 307 308 309 312 312 312 311 311 311 310 308 308 311 314 316 315 312 313 313 313 312 311 313 313 311 312 310 310 311 309 313 314 314 314 307 309 320 314 309 312 312 311 312 312 313 315 312 309 315 316 306 307 310 309 311 311 308 309 309 308 311 310 306 310 313 311 310 309 310 314 314 315 315 308 307 310 312 312 312 311
312 310 307 305 305 305 304 304 306 307 310 312 312 311 311 311 309 309 309 308 312 317 315 314 313 313 312 312 311 310 309 310 310 310 308 309 310 309 311 310 310 312 306 308 319 315 308 309 309 311 315 314 314 310 305 310 313 307 303 306 308 308 309 308 308 309 309 310 314 312 307 310 314 313 311 307 308 315 314 314 313 308 307 311 313 312 312 311
312 312 309 306 305 306 305 305 305 307 310 311 311 311 310 310 310 309 308 308 312 315 312 312 314 312 311 314 314 310 309 310 308 307 307 308 309 308 309 309 307 312 312 310 316 313 305 302 303 309 311 309 309 303 299 306 306 301 304 310 311 310 307 308 310 310 311 315 315 313 308 309 314 314 312 310 311 316 315 313 312 308 308 311 312 311 311 311
312 312 311 307 305 306 307 306 306 308 310 311 311 310 309 312 314 311 308 308 309 312 313 314 313 312 314 318 318 313 310 310 307 307 308 307 308 308 308 310 309 315 319 315 315 313 305 306 307 307 304 303 306 306 300 299 300 303 312 314 315 315 312 313 314 312 314 318 315 310 305 306 312 313 311 310 312 314 313 314 318 315 310 311 311 311 311 310
312 312 311 308 306 306 306 307 308 308 309 311 311 310 311 313 313 310 308 307 309 313 317 318 313 314 316 316 318 314 312 313 307 306 311 310 310 310 310 314 315 317 320 318 318 317 313 311 309 305 303 303 312 314 305 301 302 306 314 318 318 318 318 320 318 315 317 317 311 305 305 306 309 310 310 310 311 311 308 308 314 314 310 311 311 310 310 310
313 312 311 310 307 307 306 307 309 309 308 310 309 310 313 311 309 309 309 308 310 312 315 318 315 314 316 316 318 315 313 316 310 306 310 310 310 311 312 315 316 315 318 317 315 318 319 313 306 308 306 305 311 315 312 310 307 306 312 318 318 319 321 321 319 314 314 315 309 303 306 309 309 310 310 310 310 310 305 303 308 310 309 310 310 309 309 309
314 312 312 311 309 308 307 306 309 310 309 309 309 310 312 310 308 310 311 310 310 311 314 317 314 313 314 317 321 316 314 317 313 308 310 309 310 313 314 312 312 314 317 315 314 317 319 316 312 313 311 308 309 311 315 315 307 306 313 314 315 322 324 320 320 317 315 318 311 304 308 313 312 312 312 308 307 307 305 305 307 308 308 308 307 308 309 308
315 313 312 311 310 309 307 306 308 310 309 308 309 311 310 309 311 313 313 311 311 314 315 313 313 315 315 316 318 316 314 316 313 310 311 311 312 316 316 312 310 314 318 316 316 315 314 317 316 308 305 306 307 307 309 312 309 307 310 312 314 319 318 315 317 315 314 317 313 308 311 313 310 311 311 308 307 306 305 304 303 304 305 304 305 308 309 309
315 315 312 311 311 310 308 306 308 311 309 307 309 312 309 308 314 315 312 310 313 317 315 313 315 317 317 317 318 315 312 313 313 313 313 312 313 314 316 314 309 310 314 315 318 317 314 318 312 302 303 303 302 303 304 308 311 308 308 312 312 311 313 316 314 309 309 313 314 312 312 311 309 310 310 309 309 307 305 303 301 301 302 301 303 307 309 309
315 315 313 312 312 310 308 307 309 311 309 307 309 312 309 308 312 312 310 309 311 316 315 313 314 316 319 319 318 316 313 312 312 314 315 313 313 314 314 315 310 308 311 313 317 319 317 318 310 305 309 302 295 299 301 301 305 311 313 312 308 307 312 316 317 314 313 314 315 315 313 310 310 310 308 307 308 308 307 306 303 300 298 297 301 307 309 310
316 315 313 312 312 311 308 307 308 311 310 306 309 313 311 309 306 306 308 309 310 314 315 312 311 314 319 318 317 316 314 314 314 314 316 315 314 314 313 314 311 307 309 311 315 320 316 316 313 305 307 302 295 301 306 301 299 306 310 306 307 313 314 313 314 316 315 314 316 317 312 310 310 310 309 308 308 308 308 306 304 303 299 296 300 308 310 310
318 315 314 313 312 311 309 307 308 311 310 306 308 311 311 311 306 304 308 310 311 313 312 311 309 310 315 316 317 316 312 313 314 313 315 315 314 313 312 314 313 308 307 308 313 317 314 315 316 305 301 303 301 305 312 307 300 300 302 302 306 312 314 314 312 313 316 313 313 314 311 310 312 312 312 311 310 310 310 309 308 306 300 297 302 309 311 310
317 315 313 313 312 312 310 308 308 310 311 309 308 308 308 310 309 307 307 308 310 311 310 313 311 309 312 314 316 317 314 313 313 312 314 315 314 313 311 313 316 311 306 307 311 314 313 315 316 308 301 304 306 307 310 310 305 302 304 305 305 307 310 312 310 311 315 314 313 313 311 310 313 314 315 312 310 309 309 311 312 307 301 301 307 311 311 311
316 314 313 313 312 312 310 309 310 310 312 311 310 309 308 309 309 310 308 307 309 309 309 314 315 310 311 313 313 315 314 314 313 312 314 314 313 313 311 310 314 312 308 308 311 313 314 315 315 312 307 307 309 307 305 308 308 305 306 307 306 306 309 312 310 309 311 313 315 315 311 310 311 313 314 314 314 313 309 310 312 305 302 306 310 310 310 310
315 313 313 313 312 312 310 309 311 310 312 313 312 311 310 309 310 310 308 307 307 307 308 312 314 311 310 311 312 314 315 317 315 312 313 314 312 311 311 309 308 309 310 312 311 310 314 317 314 314 314 310 306 302 299 303 306 306 307 307 307 307 308 311 311 310 310 310 310 311 311 310 312 316 318 317 318 314 306 306 308 304 304 309 310 309 310 309
314 313 312 312 311 311 310 309 310 310 311 312 312 311 311 310 311 310 309 308 308 308 308 309 310 309 309 311 313 313 313 315 316 313 313 316 313 310 309 308 307 309 312 313 312 309 311 315 313 313 316 312 304 299 298 301 304 307 307 306 306 306 307 310 310 310 312 311 310 311 311 310 311 316 320 318 314 307 301 301 304 302 305 309 309 309 309 308
315 313 311 311 311 311 310 311 311 310 311 311 311 312 312 311 312 311 310 309 308 310 310 308 308 308 310 311 311 311 311 311 313 313 312 316 315 309 307 307 308 311 312 312 313 311 311 315 314 313 316 315 310 305 304 303 304 307 309 306 306 306 306 309 308 307 310 310 309 311 310 309 310 312 313 312 310 308 303 299 300 301 304 307 308 308 307 307
314 313 310 310 311 310 310 311 311 311 310 310 311 311 312 312 312 312 311 309 308 309 310 309 308 308 309 311 310 310 310 309 310 311 311 314 311 305 304 307 308 310 310 309 309 310 314 316 314 313 314 315 313 311 311 309 305 305 308 306 305 306 306 307 308 308 309 308 308 309 309 309 309 310 309 307 307 309 303 297 297 300 302 305 305 306 305 305
314 313 309 308 309 310 310 310 310 310 310 311 311 311 311 312 311 310 311 311 309 308 308 309 308 307 309 310 309 309 310 309 309 310 312 315 313 305 301 304 307 308 308 308 307 310 316 316 312 313 314 312 312 310 313 313 309 307 308 307 305 306 305 307 308 309 309 309 308 308 309 309 309 309 309 307 308 309 306 302 299 299 301 303 304 304 304 304
314 313 310 308 309 309 309 309 309 309 310 310 311 311 311 311 311 309 310 311 311 309 309 309 309 309 310 309 309 309 309 309 309 309 309 311 312 308 302 301 304 305 305 307 307 311 315 314 311 313 313 311 312 310 311 311 310 309 309 307 306 305 305 307 308 308 309 310 310 309 308 309 309 308 308 308 308 308 308 307 304 303 304 305 304 304 303 303
315 314 311 310 311 310 308 308 308 308 310 310 311 311 311 311 310 310 310 310 309 310 310 311 310 310 310 310 310 309 309 309 309 309 309 309 309 308 305 304 304 303 304 306 305 308 312 312 311 313 312 311 310 310 310 309 308 308 309 308 307 305 304 306 307 307 308 309 309 309 309 309 309 308 308 308 308 307 307 307 306 306 306 306 305 304 303 303
316 315 313 312 312 311 309 308 308 308 309 310 310 310 311 312 311 310 310 310 309 309 310 311 311 310 310 310 310 309 309 309 310 310 310 309 309 309 308 308 305 301 303 307 307 306 308 310 311 311 310 311 310 309 309 308 307 307 307 308 308 306 305 305 306 306 307 308 308 308 309 308 308 308 308 308 307 307 306 306 305 305 305 305 305 303 302 302
315 314 313 311 311 311 310 309 308 308 309 309 310 310 310 311 312 311 310 311 311 309 309 311 311 311 310 310 310 310 310 310 311 311 310 309 310 310 309 310 309 303 303 307 309 306 306 309 311 310 310 311 310 309 309 308 307 307 307 307 307 306 305 304 304 305 306 306 306 306 307 307 307 307 307 307 306 306 305 305 305 305 305 305 305 303 303 302
315 315 314 312 311 310 310 310 309 309 309 309 309 310 310 310 310 311 310 310 311 311 310 310 310 311 310 309 309 309 310 310 310 310 310 309 310 310 310 310 311 309 306 306 308 307 307 308 310 309 310 310 310 310 310 309 307 307 307 308 307 307 306 305 305 305 306 306 306 306 307 307 306 307 307 307 307 307 307 306 305 305 306 305 305 305 304 303
313 314 315 315 313 311 311 311 310 309 309 309 309 309 310 310 309 310 311 310 309 310 310 309 310 310 310 309 309 309 309 309 310 309 309 309 308 308 309 308 308 310 310 308 307 308 308 309 309 309 309 310 310 311 311 310 309 308 308 308 308 308 308 307 307 307 306 306 306 306 307 307 307 307 308 308 308 308 308 306 305 305 305 305 305 305 305 305
Wind_Speed
11 11 11 12 12 12 12 12 12 12 12 12 11 12 13 13 13 13 14 14 12 9 9 7 2 2 2 3 4 5 5 4 5 5 4 4 4 5 6 7 7 7 8 8 8 7 5 4 3 2 2 5 3 3 4 4 2 1 2 3 1 3 3 5 7 7 4 1 4 10 14 9 3 9 11 6 9 11 11 17 19 20 26 25 19 13 10 18
10 10 11 11 11 12 12 12 12 13 13 13 13 12 12 13 13 12 12 13 13 9 9 8 4 2 3 3 4 5 4 3 3 4 4 3 3 4 5 5 5 6 7 7 7 7 5 3 2 0 5 6 3 4 4 2 3 2 3 2 2 5 4 5 8 8 4 1 4 10 13 11 6 10 12 6 6 10 9 14 19 22 26 28 25 19 14 18
9 10 10 10 11 11 11 12 12 12 13 14 14 13 13 13 13 13 12 12 12 10 8 9 7 3 4 5 5 4 3 3 4 6 7 5 3 4 4 4 4 4 5 6 6 7 6 5 2 3 6 6 4 5 4 2 1 1 3 2 4 5 3 6 8 9 8 3 3 9 10 10 9 10 12 7 5 6 10 15 17 24 29 29 28 24 19 21
9 10 10 10 10 10 10 11 11 12 12 13 14 14 14 14 14 14 13 12 12 11 8 8 8 5 4 6 7 6 5 5 7 8 8 6 4 4 4 4 2 3 4 5 5 7 8 8 3 6 7 5 4 5 2 3 1 1 3 3 4 3 1 6 9 7 9 6 3 8 7 7 11 12 13 9 3 5 15 24 24 26 29 28 29 27 23 24
10 10 10 10 10 10 10 10 11 11 11 12 13 14 14 14 14 14 14 13 12 12 9 7 8 6 4 5 7 8 5 4 5 10 9 7 5 4 3 3 2 1 3 4 4 5 8 8 3 6 5 3 3 3 1 3 3 2 1 4 3 4 1 4 6 6 8 8 5 7 6 6 9 12 17 15 8 10 17 24 24 26 27 26 26 26 26 27
12 12 11 11 11 11 11 11 11 11 11 12 12 13 13 14 14 14 14 13 12 12 10 8 8 6 4 4 6 8 7 2 3 9 9 8 6 4 4 3 2 1 3 4 4 5 7 8 3 4 4 3 2 3 1 0 3 1 2 4 4 6 4 4 4 5 7 7 6 5 5 7 8 8 16 22 23 23 21 18 17 18 22 25 23 25 28 28
13 13 13 12 12 12 11 11 11 11 11 11 12 13 14 13 13 14 13 13 12 12 12 9 8 7 5 4 5 8 11 10 7 8 10 9 7 6 5 4 4 3 3 4 4 5 7 8 5 4 4 3 2 3 2 1 3 2 1 3 4 7 8 6 5 7 7 7 8 6 6 8 9 7 8 21 33 30 26 23 18 16 16 21 23 26 28 28
14 14 14 14 13 13 12 12 12 12 12 12 12 13 14 14 14 14 13 13 12 11 12 10 8 7 5 4 5 7 12 13 11 10 12 11 9 7 6 5 5 4 3 4 5 4 6 8 6 4 3 2 3 3 2 1 1 2 2 3 4 7 9 8 8 10 9 9 10 8 9 10 10 8 9 27 36 28 27 29 26 23 18 19 23 27 29 30
14 15 15 14 15 14 14 14 13 13 13 12 12 13 14 15 15 15 14 13 12 12 12 10 9 8 5 4 5 6 9 10 9 9 11 12 11 8 6 5 5 5 5 4 5 4 5 6 5 2 3 4 4 3 1 1 1 2 3 4 4 6 7 8 11 11 10 11 10 7 11 13 10 7 14 30 32 24 26 28 27 27 24 23 24 26 29 31
15 15 16 15 15 15 15 15 15 14 14 13 13 13 14 15 15 15 15 14 14 13 12 10 8 7 6 5 5 4 5 6 7 9 10 12 12 10 8 6 6 6 6 5 5 5 4 6 5 2 4 5 4 2 1 1 1 2 2 4 6 8 8 8 10 11 10 10 10 9 8 10 6 1 10 18 13 13 18 22 25 25 25 26 24 27 30 32
16 16 16 17 16 16 16 16 16 15 15 15 14 14 15 15 16 16 15 15 15 13 11 9 7 7 8 6 7 6 6 6 6 8 10 13 13 11 9 8 7 7 7 7 5 5 4 5 6 2 2 3 3 2 2 2 1 2 2 4 6 7 9 9 9 9 7 6 9 10 6 5 3 3 16 21 13 12 14 16 21 23 24 25 25 28 30 33
18 18 18 18 17 17 17 17 17 17 16 16 16 15 16 16 17 17 16 16 16 13 10 8 6 7 8 9 12 11 10 10 10 9 10 12 14 13 11 10 9 8 8 8 6 5 4 4 6 3 1 3 2 2 2 2 1 1 1 3 6 7 5 7 4 4 5 3 4 5 4 5 6 12 25 22 16 15 14 16 20 22 24 24 25 28 31 34
19 19 19 19 18 18 18 18 18 18 17 17 17 17 17 18 18 18 18 18 17 14 9 7 6 8 9 10 12 11 10 11 11 11 10 12 14 14 12 11 10 9 8 8 6 5 5 4 5 3 1 3 2 2 2 1 1 1 2 0 4 7 5 4 1 1 4 3 4 4 4 7 8 20 26 18 16 16 15 19 21 22 25 25 27 29 32 35
20 20 20 20 19 19 19 19 19 19 18 18 18 17 17 18 18 19 19 19 19 14 10 9 8 9 9 10 11 11 12 12 12 11 11 11 13 13 13 12 10 9 8 7 6 5 5 4 3 1 1 2 2 3 0 3 2 0 1 1 2 2 4 4 0 3 2 2 7 5 4 10 9 14 17 16 18 17 17 21 21 23 25 27 29 31 34 36
21 21 21 21 20 20 20 20 20 20 19 19 19 18 18 19 19 19 19 19 19 15 13 12 10 9 10 12 12 11 11 12 13 12 12 12 12 12 12 11 10 9 8 8 7 5 4 4 2 1 1 1 2 3 2 4 3 2 1 3 2 1 4 7 3 6 4 2 6 6 3 10 12 11 13 14 16 17 20 22 21 24 25 27 31 33 36 37
23 23 22 22 21 21 21 21 21 21 21 20 20 19 19 20 20 19 18 18 18 17 15 13 10 8 8 9 9 9 9 10 11 11 12 12 13 12 11 10 9 8 8 7 6 4 4 3 1 2 1 1 2 3 3 4 4 4 1 3 3 2 3 6 3 5 5 1 3 5 3 7 9 7 9 11 13 17 20 22 23 25 26 29 33 35 38 39
26 25 25 24 23 23 22 23 23 22 22 22 22 21 20 21 21 20 18 16 16 16 14 12 9 7 8 10 9 8 9 9 10 11 12 13 13 12 11 10 8 8 7 6 5 4 3 1 2 2 1 2 2 4 2 3 4 3 2 2 4 4 3 4 4 3 3 3 4 4 4 11 14 12 12 12 14 17 21 25 26 27 29 32 35 37 39 40
30 29 28 27 26 25 24 24 24 24 23 23 23 23 22 22 20 18 16 15 14 13 11 10 6 3 7 10 8 7 8 9 10 12 13 13 13 13 12 10 8 8 5 3 4 4 3 1 3 0 3 2 2 5 2 4 4 4 3 2 4 3 4 5 5 2 2 2 5 4 6 15 18 20 23 20 18 21 27 29 28 29 33 35 36 37 38 41
32 32 31 30 29 27 26 26 26 25 25 23 23 24 23 21 18 15 12 11 9 5 5 7 8 4 4 7 8 11 13 13 12 12 14 14 13 13 12 10 8 7 2 2 3 3 2 1 3 1 2 3 4 6 7 8 7 6 5 4 5 5 5 6 5 3 1 2 7 8 10 15 17 19 23 21 17 24 31 28 26 30 35 35 35 36 38 41
30 31 32 33 32 30 28 28 27 27 26 24 23 22 19 13 9 8 9 10 10 10 11 11 12 13 12 13 16 17 17 17 16 14 13 13 13 11 10 9 7 5 2 3 2 2 3 1 4 7 8 7 9 9 6 4 6 5 4 4 5 5 7 6 3 3 1 2 8 9 9 13 17 18 22 22 14 19 27 22 25 33 36 34 33 36 38 41
25 27 28 29 30 31 30 29 29 27 25 24 23 19 13 8 5 6 9 11 14 16 18 19 19 22 23 22 23 22 18 16 16 16 14 14 12 9 7 6 4 2 2 3 3 2 4 3 9 10 9 7 6 6 6 5 5 4 4 4 5 4 7 7 2 4 2 1 6 7 7 13 17 16 21 22 11 17 25 19 25 37 36 33 33 37 39 39
23 24 25 25 26 27 28 28 29 27 25 23 20 15 12 11 10 10 10 11 16 18 18 22 24 26 28 27 28 26 18 13 14 17 16 14 14 10 7 5 4 3 2 3 4 1 1 6 12 7 7 6 4 5 6 5 5 3 3 2 4 4 5 6 3 4 2 2 4 6 8 15 18 17 22 23 15 21 29 23 31 39 33 31 34 37 37 36
23 24 25 24 23 23 24 25 27 26 23 21 18 14 12 11 10 11 9 7 13 18 18 21 23 25 27 27 28 25 18 13 13 16 17 17 15 12 9 7 5 3 1 4 6 3 2 8 8 5 10 8 5 4 6 5 3 3 3 3 5 3 1 4 4 4 1 2 4 7 11 13 15 16 18 18 14 21 29 28 35 38 32 33 35 34 33 35
22 23 24 22 21 21 20 21 23 22 21 19 17 15 12 10 8 8 8 5 7 11 14 17 18 21 24 22 21 19 18 16 13 11 15 19 15 10 9 8 5 3 4 7 9 7 7 7 4 8 6 7 6 3 5 5 2 3 5 6 6 4 5 6 3 4 3 2 3 6 11 10 7 10 10 6 5 12 19 21 29 34 33 33 32 31 32 33
20 21 22 21 20 19 18 17 18 18 18 15 14 13 10 8 6 5 6 3 4 6 9 12 12 16 18 15 15 13 11 14 16 12 12 17 18 9 5 8 6 5 7 8 8 6 9 6 10 8 3 6 6 4 5 7 3 4 6 10 9 7 7 5 3 5 4 3 3 5 8 9 1 3 6 4 3 7 8 9 20 27 25 26 29 30 31 31
18 19 20 19 19 18 15 11 12 13 13 11 10 8 6 5 3 5 4 2 3 5 4 6 7 7 10 9 10 9 3 7 13 16 13 15 19 11 4 5 4 3 6 7 5 4 4 3 6 6 5 5 5 5 6 8 5 3 5 7 7 5 4 3 1 2 1 3 3 4 1 9 2 4 4 4 4 9 8 8 16 22 22 22 27 28 27 27
17 18 18 17 17 16 11 7 10 9 6 7 8 7 5 4 1 3 4 3 5 5 5 6 6 7 7 7 12 11 2 3 5 11 16 15 17 13 6 4 2 2 5 5 2 3 2 4 4 4 6 5 5 6 6 9 7 3 3 5 6 6 5 5 3 2 3 1 3 0 3 9 8 4 4 3 4 10 13 14 14 18 24 24 25 24 22 22
17 17 18 16 14 12 9 8 10 8 7 6 7 8 6 5 4 3 3 4 5 4 5 4 6 7 7 11 17 10 0 2 3 6 14 15 15 11 6 7 6 4 4 5 4 4 3 5 5 7 6 4 6 5 8 11 5 4 4 6 6 6 6 5 4 3 2 3 4 4 4 5 10 5 2 3 4 9 12 16 13 13 20 20 18 18 16 16
17 18 18 16 13 10 8 9 9 9 9 8 8 8 8 8 4 4 2 5 3 3 4 5 7 6 6 10 13 9 1 1 1 5 10 11 13 7 2 6 6 4 2 2 5 4 2 3 6 8 6 6 5 1 5 8 3 4 6 6 5 4 4 3 3 2 1 1 7 8 7 5 9 4 3 2 4 9 11 12 11 13 19 18 14 12 11 13
18 18 18 16 13 9 7 7 9 9 10 12 10 9 10 8 4 2 4 6 3 1 4 6 6 6 8 7 5 6 3 1 1 7 6 6 9 5 1 3 4 4 1 4 3 4 1 2 1 4 5 5 5 3 2 3 4 8 7 5 5 4 4 3 1 3 1 4 8 9 12 10 8 3 5 4 5 9 10 9 8 11 17 18 14 10 10 14
18 18 18 17 13 9 7 5 9 11 13 13 11 12 11 5 4 4 8 4 1 1 4 4 3 5 8 6 2 3 3 2 3 8 5 2 5 3 3 3 2 3 2 5 4 4 2 1 2 3 5 7 8 5 4 4 5 6 4 3 3 4 3 4 4 3 1 6 5 4 8 10 9 6 4 6 7 8 10 9 9 9 14 16 12 11 13 16
18 19 18 17 14 11 7 7 10 13 14 13 13 14 9 1 2 5 4 1 0 4 4 3 2 3 6 2 1 4 3 2 5 6 5 3 4 4 4 5 5 2 3 5 4 4 2 4 2 2 5 7 6 4 3 3 2 4 3 4 3 4 3 4 3 1 3 7 3 1 3 5 12 11 8 9 10 11 11 12 12 10 13 16 15 15 17 18
19 20 20 18 16 11 8 8 10 14 15 15 14 10 6 2 7 5 4 3 3 3 2 3 1 3 5 3 2 4 2 3 5 4 3 3 3 5 6 5 6 2 3 4 1 3 3 4 2 3 4 9 10 6 3 2 3 6 5 5 3 1 1 3 4 2 5 7 3 3 3 4 9 8 12 16 17 17 16 19 20 16 16 19 19 20 21 22
21 21 21 19 17 14 10 10 13 15 15 17 14 5 4 7 6 5 7 8 2 1 2 3 3 3 3 3 4 4 3 4 5 5 3 3 2 5 6 7 6 2 2 3 1 3 4 7 5 7 3 10 13 8 6 6 5 5 4 5 5 5 4 5 4 4 7 6 3 1 2 4 4 4 9 15 17 20 21 24 25 22 23 23 23 24 24 25
23 23 23 21 20 17 12 11 16 16 16 17 10 3 6 10 3 3 7 6 2 0 1 2 5 4 3 3 3 4 6 5 3 6 4 5 5 5 5 8 9 6 5 3 3 3 4 9 6 2 1 9 10 4 6 8 4 2 3 4 3 5 5 3 3 4 1 4 5 3 4 6 4 3 4 4 7 15 19 20 21 24 26 23 22 26 27 27
25 25 25 25 24 17 11 13 18 18 17 14 6 6 11 9 3 5 6 6 6 5 5 1 3 4 4 3 3 5 3 2 2 3 4 4 4 6 4 5 10 12 9 6 3 3 3 6 2 3 1 3 3 1 3 3 3 3 2 4 4 3 5 3 3 1 5 3 6 2 5 10 6 4 6 6 6 10 11 11 15 21 22 18 22 28 29 28
28 29 29 31 28 17 10 14 18 17 14 9 7 10 9 5 6 7 4 5 5 7 8 3 4 6 5 3 4 5 3 1 2 3 4 3 4 7 6 4 8 16 18 11 4 4 4 4 3 2 1 1 2 2 3 3 3 5 4 5 3 2 4 3 2 3 2 5 5 4 11 15 12 7 3 6 8 11 11 10 12 16 15 16 25 31 30 27
32 31 32 35 32 20 13 14 18 18 11 5 11 14 5 3 5 4 5 6 4 6 7 6 6 6 6 5 4 5 6 4 4 4 4 4 5 5 8 5 7 16 23 16 4 3 4 4 4 2 1 0 2 2 2 3 2 5 4 2 4 3 2 2 2 2 4 4 4 11 17 17 14 9 4 7 11 14 13 11 11 11 11 18 27 31 29 27
33 28 29 33 31 22 18 17 21 20 10 5 12 13 2 1 4 3 9 9 3 4 7 7 6 4 5 7 3 4 8 7 7 5 4 5 5 4 9 7 8 13 21 19 8 2 4 4 4 1 1 0 2 1 5 3 1 2 0 0 2 2 4 3 3 3 3 3 5 12 16 15 11 7 8 13 14 13 12 10 10 10 14 22 28 29 28 27
34 21 18 23 20 19 23 22 22 18 8 7 12 9 1 2 6 11 18 14 4 4 6 5 6 5 4 6 4 4 7 6 7 6 4 5 5 5 8 9 5 6 11 13 7 1 3 3 5 0 3 1 3 6 9 9 7 4 3 3 2 1 2 1 2 2 3 4 4 6 12 17 8 8 11 12 11 12 12 11 9 10 18 26 27 28 27 27
32 13 13 20 15 21 31 24 16 11 5 8 10 7 5 5 6 9 17 18 9 5 5 5 7 8 6 6 4 4 6 4 6 6 4 6 6 5 10 15 11 8 6 4 4 4 3 4 6 3 1 5 7 6 4 5 8 9 8 8 8 6 4 1 5 3 3 4 5 4 10 18 7 7 6 7 8 9 11 11 9 12 21 25 25 26 26 26
26 10 15 21 19 30 36 19 11 10 6 10 11 8 7 7 5 5 10 15 10 5 4 4 6 8 6 5 4 5 6 5 7 8 5 7 9 8 12 20 18 16 11 5 4 5 4 2 4 6 6 7 5 2 1 2 4 5 4 6 7 6 6 6 8 5 1 2 3 3 5 18 9 7 5 6 8 9 12 13 10 13 21 23 22 25 25 25
25 15 15 19 26 38 33 10 9 11 8 14 15 11 10 6 2 3 7 9 8 4 5 5 4 6 6 4 4 5 7 7 7 8 4 5 11 12 12 19 19 14 8 3 1 2 4 2 4 5 5 3 3 3 2 2 3 3 4 4 6 7 9 8 6 3 2 5 4 3 5 19 12 4 5 5 6 8 11 14 13 12 17 21 22 24 24 25
28 21 16 21 34 41 27 6 8 13 11 13 13 14 14 8 6 7 5 6 8 5 5 6 4 6 7 4 5 7 8 7 7 8 7 7 8 9 13 22 21 11 6 6 7 9 6 2 4 2 4 5 4 2 2 3 0 3 5 5 7 10 8 3 0 2 4 9 8 5 10 19 11 3 5 3 4 5 6 11 14 13 16 21 22 23 23 24
20 14 15 30 45 42 25 13 10 10 13 14 13 14 14 9 11 15 11 9 11 6 4 6 5 6 6 4 3 7 7 9 9 6 6 8 4 1 8 22 23 14 8 6 9 14 9 3 6 6 7 10 11 10 5 2 2 3 3 6 11 14 14 8 3 5 11 10 9 8 15 20 15 8 5 3 4 5 6 8 13 16 20 23 23 25 26 26
11 6 6 19 37 36 26 20 12 6 11 14 10 10 14 12 9 12 13 12 14 11 5 3 2 3 5 5 5 10 12 12 8 4 4 6 3 4 2 16 21 13 4 2 10 13 5 3 11 14 15 14 14 15 6 6 5 6 7 10 13 15 17 12 7 11 11 4 6 15 24 22 20 23 22 11 6 8 10 8 10 17 22 25 28 30 30 29
9 6 7 10 17 20 20 19 14 7 7 11 8 6 15 17 8 6 12 13 16 15 6 3 4 5 7 10 11 14 15 10 6 9 12 8 5 3 2 6 12 8 2 3 11 10 2 4 13 17 20 18 18 21 13 6 8 11 10 13 15 14 16 14 16 21 11 5 9 25 25 17 17 27 34 24 12 13 15 12 13 19 25 28 29 29 27 28
13 8 18 21 12 6 12 19 19 15 12 11 9 8 13 16 12 10 12 9 10 14 9 6 11 16 17 17 14 11 10 7 6 12 14 11 8 3 2 1 5 6 3 2 5 4 2 7 14 16 21 22 20 25 22 12 10 10 10 14 16 17 19 20 24 27 18 12 20 24 17 13 18 29 34 25 15 13 15 19 22 24 25 24 24 24 24 27
22 10 16 27 18 10 20 29 23 19 17 13 9 10 14 17 19 16 9 3 4 11 14 11 15 23 25 21 13 8 7 8 11 13 13 13 10 4 2 6 4 3 4 2 1 2 2 6 13 16 19 20 21 26 24 15 11 12 11 12 17 20 21 22 26 30 28 26 25 22 18 17 24 31 27 21 20 16 15 22 26 24 23 23 24 25 25 28
24 15 10 18 18 16 24 26 17 12 15 15 11 12 16 18 21 17 9 9 9 8 13 19 23 21 19 16 13 13 16 18 18 17 13 10 7 4 6 8 4 1 2 3 2 2 4 7 11 11 11 15 21 24 20 15 15 16 13 14 23 24 17 18 26 28 26 24 21 20 20 20 26 28 18 18 27 23 15 21 28 31 31 28 28 28 28 30
32 31 23 13 8 12 16 15 12 9 9 12 13 14 16 20 23 19 12 17 20 12 13 22 26 18 11 12 16 20 26 25 22 24 22 14 11 12 10 8 7 5 3 5 3 2 4 6 6 7 9 12 18 19 14 11 10 11 14 23 30 25 16 20 26 22 17 16 17 18 17 18 24 19 10 12 19 15 13 19 26 32 33 29 29 33 34 34
27 32 36 23 7 11 14 10 10 12 9 12 17 18 18 21 23 18 12 15 24 27 22 21 20 14 8 11 20 30 37 37 34 38 37 26 18 17 16 15 15 12 6 5 4 4 6 6 6 7 9 12 16 14 6 5 4 8 15 23 27 23 20 24 25 21 15 12 13 16 17 21 22 16 13 15 12 8 14 21 26 30 30 29 32 38 39 37
Wind_Direction
0 1 1 0 359 359 358 355 353 351 350 351 353 354 354 355 1 8 10 14 14 8 6 6 335 248 194 165 160 166 162 169 177 169 157 140 125 112 99 81 69 52 40 35 33 33 34 22 341 331 167 159 141 132 101 50 74 120 97 98 174 182 196 189 186 195 168 230 217 188 183 177 205 205 202 216 223 223 221 219 219 220 223 230 233 233 227 206
355 357 358 359 358 358 356 354 351 348 345 343 343 344 345 344 348 357 2 7 12 10 2 3 352 267 231 212 186 175 171 187 200 199 196 179 142 122 110 95 77 56 43 32 28 27 34 28 336 273 161 158 138 136 124 51 65 87 107 95 234 195 202 198 188 194 181 351 201 187 187 194 211 197 195 215 227 214 222 229 224 228 229 231 234 233 228 209
348 351 353 356 358 359 357 356 353 349 345 341 339 338 337 337 337 343 350 358 8 11 1 358 354 309 248 233 218 202 211 245 245 221 201 194 170 144 133 118 87 56 42 28 28 26 22 19 29 152 160 146 132 137 113 47 84 96 104 106 244 215 230 217 200 205 211 250 169 182 194 207 219 197 192 209 232 208 220 229 221 229 235 233 231 229 224 211
340 343 346 351 354 356 357 357 356 352 348 342 338 336 334 332 330 332 338 347 357 4 4 357 351 331 274 242 227 223 241 274 256 218 199 198 187 166 156 142 103 47 31 20 25 27 15 8 51 147 150 129 119 137 97 26 126 174 126 164 231 198 245 227 211 220 221 225 194 180 184 220 225 207 201 199 215 237 233 236 233 240 248 240 230 226 221 213
331 335 339 343 347 352 354 354 354 354 351 346 341 335 333 330 327 326 329 335 344 353 358 357 351 333 296 258 235 231 246 310 245 206 203 205 195 187 177 165 159 20 7 6 13 21 12 7 60 144 133 115 92 113 67 26 118 147 177 216 224 163 202 266 223 220 217 214 206 176 173 223 213 209 214 200 205 241 244 250 250 252 257 249 238 231 223 215
324 327 331 336 341 345 347 349 349 350 349 347 342 335 333 329 326 324 323 326 332 340 345 349 353 338 303 271 245 231 225 248 209 201 210 211 203 204 197 197 202 275 334 348 357 0 4 14 57 146 111 91 83 110 127 58 153 182 266 248 237 193 208 295 249 227 225 210 207 195 211 224 197 222 229 216 228 244 251 260 260 257 253 249 243 233 226 220
318 322 326 330 334 338 341 344 343 344 346 345 343 337 333 330 326 325 322 321 322 329 335 338 348 345 311 277 251 234 233 243 246 235 230 220 215 214 207 216 221 250 306 332 333 335 353 16 56 112 96 84 164 145 97 150 170 149 230 252 231 214 227 266 263 240 238 233 240 247 249 232 213 239 245 235 244 248 251 256 256 258 251 244 237 229 229 225
314 317 321 325 328 332 335 337 338 340 342 342 341 338 333 331 327 326 324 321 321 322 326 328 335 342 324 278 253 245 249 253 259 253 236 222 221 221 217 223 228 252 289 317 313 317 347 11 48 92 104 96 158 166 85 111 152 108 175 230 216 229 243 259 259 246 248 254 257 261 253 246 241 254 266 259 261 258 252 254 253 253 252 244 236 230 227 224
309 312 316 321 323 327 330 331 333 334 337 338 338 336 331 330 328 328 326 323 323 320 322 325 323 331 329 279 258 261 261 257 257 251 230 221 226 227 228 235 234 248 272 296 298 303 343 8 26 56 161 146 135 155 108 119 245 161 177 216 222 242 255 257 253 247 254 259 252 250 255 257 259 274 273 267 269 266 254 252 251 250 249 244 237 232 227 223
301 305 309 314 317 322 324 326 327 328 333 333 334 334 328 327 328 327 327 325 324 320 319 320 318 322 320 282 243 247 269 260 249 245 233 230 232 232 235 239 241 246 260 280 290 287 324 359 5 52 144 149 133 146 149 125 210 193 208 241 238 245 260 258 253 251 256 262 243 229 253 262 246 231 264 265 274 268 254 249 248 247 245 243 237 232 227 224
295 299 302 307 311 316 319 321 323 324 327 328 330 331 326 324 325 325 325 325 323 321 317 315 313 308 310 281 229 232 274 275 253 251 245 239 235 235 240 239 243 248 254 268 282 274 283 343 354 20 148 161 140 144 182 164 177 264 289 275 268 275 271 251 251 257 249 264 242 222 250 262 168 167 246 254 267 269 257 250 247 245 243 240 235 230 225 223
291 294 298 302 305 310 314 316 318 320 321 324 326 327 326 322 322 323 322 323 322 319 313 310 304 302 305 274 249 256 278 275 267 269 256 242 235 235 240 240 245 252 258 266 274 273 258 307 341 332 228 174 154 107 157 169 188 256 54 283 300 343 306 238 238 248 205 236 227 194 269 255 182 225 245 251 259 259 251 246 245 242 241 237 232 227 224 223
287 290 293 296 300 304 308 310 312 314 315 318 320 323 325 320 321 322 320 321 320 316 313 306 295 299 297 273 268 276 277 273 269 270 262 244 235 236 240 240 247 254 261 265 272 278 244 261 326 318 192 158 161 137 152 130 130 196 92 88 317 355 324 232 143 138 171 208 179 141 286 263 210 232 246 253 252 247 238 239 241 239 238 234 230 226 224 222
282 285 288 290 294 297 300 303 304 307 309 311 313 316 319 317 317 319 318 319 316 308 305 302 293 292 281 269 280 282 273 272 268 264 260 246 237 239 241 242 249 255 264 266 273 284 240 245 314 292 154 109 141 146 79 19 60 177 36 41 11 346 289 281 287 147 158 208 177 147 275 270 255 243 248 253 248 242 236 239 240 238 237 234 230 226 225 224
276 280 283 285 288 291 294 296 298 300 303 304 307 310 313 312 312 314 314 313 312 303 300 301 292 283 277 273 277 278 274 269 262 260 255 246 240 240 241 244 249 255 267 267 272 285 247 241 272 157 133 120 128 116 2 356 16 26 341 306 336 196 273 298 273 190 209 224 173 164 246 272 276 264 255 250 243 238 237 242 242 240 239 237 233 228 227 226
272 274 276 279 282 285 288 290 293 295 298 301 303 305 308 308 308 310 309 308 304 297 297 299 285 272 277 280 272 269 271 263 261 259 251 245 241 240 242 248 254 261 270 272 273 270 246 243 171 126 150 180 120 88 32 2 341 6 55 259 277 234 282 310 286 218 220 191 185 206 241 277 280 266 244 235 239 240 239 244 244 244 244 242 238 232 228 226
273 273 274 275 277 280 283 285 288 291 295 298 300 302 304 306 306 307 305 300 294 292 296 290 274 270 267 264 262 263 270 268 265 258 250 245 241 240 245 250 258 267 270 269 263 238 227 217 143 153 58 70 88 88 34 332 302 325 19 255 253 231 261 294 299 272 187 175 230 224 232 257 266 272 261 248 253 250 244 248 249 249 250 248 243 235 230 228
276 276 276 276 276 278 279 282 285 288 291 295 299 302 304 307 307 305 297 288 284 289 293 268 239 277 264 245 242 258 278 281 274 263 252 246 242 240 244 251 261 265 268 257 238 205 207 146 119 156 16 32 64 103 175 248 219 233 234 242 270 255 245 254 266 278 134 180 242 226 240 256 265 275 271 263 258 253 252 255 255 253 254 252 245 238 234 232
277 277 277 277 277 277 278 280 283 285 288 292 297 300 305 308 305 298 283 273 270 272 276 232 197 193 235 234 255 274 282 280 275 265 254 247 243 242 243 251 256 248 224 198 220 172 165 82 94 231 251 203 195 170 201 216 180 189 202 196 240 256 258 246 240 254 147 225 254 237 241 258 267 273 274 269 255 251 256 258 257 256 255 251 245 242 238 237
281 280 278 277 276 277 278 280 281 283 286 290 295 301 306 308 307 297 271 259 261 261 263 248 230 239 252 263 274 277 275 270 266 260 254 246 238 240 243 242 241 233 199 178 197 126 115 197 226 227 220 206 211 201 193 179 146 140 150 187 232 241 265 265 249 288 41 206 258 251 248 262 265 268 274 272 256 251 255 252 254 257 255 250 246 246 244 243
286 285 284 282 280 277 276 277 278 280 284 289 295 302 304 297 292 294 285 278 274 266 263 259 252 255 260 266 271 272 267 263 260 250 247 241 227 227 231 216 192 208 238 151 138 95 98 203 240 232 211 197 199 179 138 119 118 115 156 209 256 234 255 270 279 318 353 171 263 279 277 268 265 266 272 269 245 246 254 243 249 257 256 253 249 249 249 250
287 288 289 289 288 283 277 275 275 277 280 285 291 296 294 286 280 284 292 290 279 270 264 261 258 257 260 261 263 263 256 252 253 241 236 230 218 213 200 170 156 194 250 115 128 55 85 237 250 222 160 121 88 121 124 122 121 114 140 178 262 241 269 294 326 345 8 195 269 297 287 271 267 264 265 264 247 250 257 248 251 258 256 253 252 251 251 251
287 288 289 291 293 290 281 275 273 274 277 279 284 287 284 283 281 285 288 280 281 279 267 260 257 256 257 256 255 251 237 235 248 242 232 221 210 205 190 157 146 174 194 172 174 164 195 252 256 170 139 115 82 104 113 104 120 152 150 177 251 246 281 286 307 327 277 218 277 291 279 268 264 259 260 267 259 255 259 255 255 258 255 255 256 256 255 253
289 288 289 292 293 290 284 278 273 272 274 275 279 279 277 278 273 287 289 269 280 281 264 254 251 251 250 249 248 239 229 233 242 238 224 212 197 191 197 171 143 189 218 188 176 189 230 237 153 122 128 121 116 138 136 143 218 244 198 206 238 233 223 237 283 323 310 315 330 310 292 278 251 248 260 290 287 262 258 253 254 254 252 254 256 257 257 256
292 290 290 292 292 291 287 280 273 270 271 272 275 271 267 266 267 298 306 285 274 276 263 248 241 245 243 240 238 224 221 237 239 232 217 204 193 178 181 174 169 218 209 162 155 211 251 215 146 130 109 118 138 194 188 174 203 291 231 213 222 226 234 251 324 352 356 332 335 10 323 298 233 203 262 299 323 280 260 245 255 258 255 251 252 255 257 258
294 292 293 293 291 291 287 279 271 267 266 264 261 251 244 246 273 312 324 2 279 256 227 213 212 223 223 222 211 188 201 258 236 224 211 201 197 184 154 167 176 215 177 144 150 219 254 164 142 151 158 154 177 233 222 172 153 289 247 202 199 200 208 228 7 12 294 255 303 55 335 281 270 146 243 274 291 283 272 258 260 264 264 255 255 260 260 260
295 295 295 293 291 292 285 263 256 252 242 240 229 214 224 215 173 354 358 336 269 212 161 178 179 185 199 187 166 155 194 244 196 204 199 194 195 189 193 191 154 211 174 135 185 237 140 106 91 120 141 160 194 242 218 157 141 238 233 132 136 151 171 185 142 168 238 273 320 329 177 274 275 215 245 276 268 279 277 272 269 264 263 259 259 264 264 265
298 299 299 292 290 294 280 251 242 228 215 218 207 203 195 165 155 67 53 274 265 145 139 168 161 179 190 173 171 169 271 165 136 191 187 184 189 186 218 218 173 192 187 144 206 257 121 149 174 147 134 180 202 234 195 159 154 235 188 118 125 141 151 151 130 183 265 21 305 254 162 272 274 234 301 341 235 255 262 260 263 262 260 258 258 261 264 270
301 303 304 297 294 293 274 248 227 218 215 199 182 186 168 154 151 72 97 246 265 111 145 163 158 179 164 156 190 216 285 71 112 173 170 178 191 183 243 216 163 151 194 165 220 263 75 167 193 151 148 207 207 256 185 173 192 172 133 97 81 77 84 91 120 148 31 353 261 241 169 228 274 217 141 66 200 233 249 252 256 260 260 257 255 256 264 276
302 304 305 302 299 289 274 243 214 211 203 192 185 172 157 149 124 106 227 241 254 126 126 154 171 167 143 140 217 236 214 256 112 141 150 170 188 186 130 167 122 114 337 339 272 254 55 71 222 164 170 175 140 84 70 132 139 129 113 77 51 41 57 51 60 95 31 267 258 236 181 193 270 249 166 183 198 208 222 238 252 260 259 253 251 257 270 281
296 299 302 302 295 278 268 233 208 202 192 190 186 166 155 134 96 188 228 235 274 218 121 159 193 145 152 160 202 202 182 244 168 152 156 144 169 170 123 141 105 83 348 322 287 290 14 96 258 213 164 130 104 73 40 62 113 117 98 77 34 341 15 18 356 56 262 253 264 251 183 188 242 252 202 226 242 217 206 216 224 235 247 247 248 260 270 279
288 291 294 293 287 277 261 228 204 196 193 186 180 170 151 130 239 209 219 22 262 217 165 173 212 164 173 164 177 182 163 212 185 163 166 152 166 187 190 188 164 96 307 250 262 327 289 220 221 170 174 161 125 81 36 15 84 115 100 91 45 325 358 350 301 134 231 252 255 149 153 216 245 246 228 235 250 236 216 212 210 210 235 248 255 261 267 274
280 282 285 286 284 278 256 227 201 191 191 179 176 166 116 213 236 188 172 210 217 213 147 124 113 140 145 137 223 197 161 213 187 168 176 145 168 227 246 223 169 168 254 209 247 340 288 289 146 152 224 191 170 161 196 234 175 166 149 129 144 136 67 280 268 276 272 270 273 135 144 252 269 256 219 217 227 224 216 217 219 222 239 253 259 261 264 268
272 274 277 280 276 267 251 225 197 187 187 178 173 141 117 230 238 140 184 216 227 22 70 92 94 106 148 184 229 192 178 230 172 153 181 136 158 236 242 227 196 157 113 156 183 173 244 285 197 176 202 178 183 198 175 138 146 180 154 139 159 151 177 235 233 247 274 291 294 209 180 223 251 262 215 214 225 226 223 225 227 238 249 254 257 256 259 262
264 267 267 267 264 260 256 225 198 186 181 177 170 147 200 225 222 146 203 205 194 178 67 61 101 121 229 250 263 224 209 233 152 137 182 175 189 210 197 203 194 162 130 171 228 167 220 267 228 172 112 162 180 201 126 112 132 195 124 126 179 176 176 216 212 193 227 319 290 230 222 226 221 285 262 234 235 228 228 232 234 244 248 247 250 251 255 257
257 258 258 257 254 251 249 221 198 188 183 174 167 212 221 227 185 180 197 165 174 160 116 41 104 144 242 263 265 246 211 224 148 145 208 209 224 217 195 206 188 179 179 177 197 174 203 272 279 50 355 174 172 167 110 113 170 165 148 177 207 182 140 143 263 39 74 283 273 241 255 270 286 286 233 209 223 223 222 227 230 238 238 236 243 248 250 251
247 248 249 250 249 240 223 211 195 188 188 178 199 220 219 223 191 182 175 147 153 137 134 203 199 174 215 232 227 212 171 215 181 171 211 219 242 206 193 243 194 187 198 193 204 213 191 264 258 135 205 266 27 69 55 20 115 132 194 207 175 114 94 110 245 357 30 246 271 287 270 274 281 277 207 184 225 234 229 224 231 237 229 228 239 244 245 245
239 242 245 248 248 236 207 199 192 187 184 182 232 235 219 207 206 166 149 152 135 137 161 214 210 174 195 210 219 185 170 193 178 177 207 212 246 187 160 211 198 194 206 201 222 247 175 241 264 117 112 317 27 80 90 4 72 128 203 207 112 140 153 107 166 227 250 240 276 282 276 271 261 251 219 209 217 223 229 226 228 232 219 224 236 239 240 240
233 233 243 247 245 231 207 193 186 184 181 190 230 240 233 298 269 215 183 176 150 168 188 220 217 193 191 187 178 169 183 195 176 181 209 200 235 196 162 189 203 203 205 193 195 235 157 210 253 19 348 39 45 175 187 204 54 76 190 281 68 156 172 167 166 180 218 220 262 280 282 275 252 194 190 218 213 205 214 217 217 222 218 222 230 234 234 236
221 219 241 243 237 214 195 187 183 181 188 212 223 235 264 311 267 232 212 200 177 188 201 216 206 210 213 188 182 184 194 207 183 184 224 202 224 236 188 186 186 192 196 188 198 229 105 209 231 322 336 237 187 206 199 192 178 160 173 176 192 174 125 203 234 124 145 194 235 266 274 272 256 149 180 210 203 195 198 201 209 217 221 224 229 232 232 235
210 212 238 226 216 191 178 175 186 192 208 226 227 236 239 253 254 234 223 218 220 223 201 188 196 205 204 191 205 187 178 206 194 193 235 212 222 251 203 192 176 137 130 161 223 214 153 203 212 184 237 232 227 221 197 191 178 173 186 187 190 181 131 189 252 219 150 194 205 193 258 270 262 126 173 189 170 191 194 196 209 210 217 227 231 232 234 238
201 212 230 209 191 179 171 171 204 205 219 225 225 236 229 241 256 235 224 219 226 252 228 214 211 209 203 191 195 175 171 202 203 201 234 223 218 227 202 192 175 147 139 154 213 195 135 137 215 224 228 232 253 295 330 244 164 156 207 194 178 175 157 187 231 231 160 214 219 114 263 268 260 116 135 163 163 194 195 193 205 210 216 226 231 232 237 240
199 211 221 203 191 179 168 169 211 198 227 229 228 243 233 231 261 217 212 212 214 224 230 234 200 203 228 205 168 183 193 209 209 198 213 233 226 230 208 181 166 149 145 153 193 140 110 132 211 247 276 303 352 16 354 322 108 141 241 190 166 199 197 203 220 186 168 218 208 97 256 264 272 100 134 185 177 185 196 198 206 215 223 229 231 232 236 240
209 211 192 187 189 181 172 186 204 199 225 226 227 243 237 236 243 223 205 203 207 197 216 236 200 202 230 186 176 212 200 203 229 211 205 232 239 233 204 179 169 167 184 188 177 164 162 180 166 199 289 289 287 288 326 330 226 212 236 176 188 219 212 220 331 116 237 225 179 165 249 258 266 93 119 181 192 190 208 213 213 220 229 232 233 235 239 241
215 210 183 184 187 185 190 205 197 200 215 216 225 233 232 242 242 231 224 217 219 204 201 234 214 203 216 173 202 238 208 210 239 230 212 235 264 334 198 187 180 188 218 213 169 163 169 184 164 183 231 234 243 246 226 182 185 225 230 179 196 209 203 207 216 218 239 222 161 186 246 254 261 272 258 212 202 232 241 226 226 234 239 239 242 245 247 247
207 196 174 182 191 202 218 220 214 218 210 212 223 226 226 236 246 233 220 221 229 223 217 249 198 179 210 198 223 243 231 225 236 252 243 235 257 357 225 194 191 196 230 209 164 160 156 196 187 203 224 225 241 253 226 122 152 215 212 198 204 207 204 204 222 234 230 173 163 226 240 252 271 279 270 244 208 252 264 244 234 242 248 252 255 256 255 255
204 190 179 177 197 219 236 233 232 240 210 199 197 207 221 226 243 234 208 213 223 215 216 271 213 204 219 209 219 237 233 224 220 238 249 246 243 299 7 195 209 222 281 196 179 166 119 213 203 214 230 232 246 256 246 176 203 223 207 207 214 208 201 202 222 233 219 123 227 240 242 251 267 270 268 261 253 265 272 268 259 259 260 262 263 261 258 256
216 201 191 194 194 195 219 223 219 219 217 202 193 210 222 219 225 225 210 212 213 195 192 230 219 218 222 213 216 233 231 224 227 233 245 251 242 252 17 259 225 217 220 225 201 178 173 223 217 221 235 238 245 253 250 229 224 226 204 212 221 210 202 206 224 234 227 216 239 247 248 250 253 257 262 267 270 264 266 270 270 267 265 263 262 259 256 256
224 226 200 201 203 187 203 213 212 210 215 212 205 216 222 219 221 220 201 168 207 198 198 217 223 221 224 221 217 224 220 220 232 233 235 239 233 217 248 253 241 192 186 188 238 206 187 231 231 231 242 245 244 248 248 238 236 238 222 222 232 225 211 212 228 237 234 234 245 257 261 258 255 256 262 277 282 273 270 274 273 268 262 262 262 259 258 259
231 239 216 202 211 210 209 213 212 207 212 215 218 221 224 228 228 226 199 177 205 208 196 218 232 227 221 219 214 222 225 220 229 236 227 215 207 200 223 231 227 152 180 196 217 207 199 229 239 244 254 251 247 251 249 237 237 244 245 247 247 241 225 221 235 240 241 246 254 262 265 261 258 260 270 283 280 278 278 275 273 271 268 269 269 267 264 261
248 247 243 232 222 213 213 213 203 202 209 209 215 220 224 229 228 228 222 208 215 218 193 211 231 232 215 206 209 224 230 224 229 236 229 212 198 203 211 209 192 176 192 206 193 161 200 226 241 251 257 251 250 255 248 230 234 243 247 249 249 246 237 233 240 240 240 252 260 261 261 256 258 267 274 263 265 268 268 266 268 271 272 271 271 271 268 263
260 256 250 251 239 189 204 219 205 208 215 206 212 217 219 226 226 225 234 224 222 229 221 211 223 229 213 205 214 226 231 229 231 236 238 239 231 216 210 202 191 186 188 191 185 175 192 214 228 231 244 252 253 251 224 168 206 236 236 241 246 249 247 245 250 250 235 231 248 255 256 258 266 276 269 257 253 244 254 261 264 267 270 268 267 268 268 266